CCSDS_OMM_VERS = 2.0 CREATION_DATE = ORIGINATOR = OBJECT_NAME = GLOBALSTAR M069 OBJECT_ID = 2007-020C CENTER_NAME = EARTH REF_FRAME = TEME TIME_SYSTEM = UTC MEAN_ELEMENT_THEORY = SGP/SGP4 EPOCH = 2026-09-12T06:29:13.710048 MEAN_MOTION = 12.23474554 ECCENTRICITY = .00013313 INCLINATION = 52.0063 RA_OF_ASC_NODE = 5.6448 ARG_OF_PERICENTER = 342.3395 MEAN_ANOMALY = 38.1634 EPHEMERIS_TYPE = 0 CLASSIFICATION_TYPE = U NORAD_CAT_ID = 31573 ELEMENT_SET_NO = 999 REV_AT_EPOCH = 88946 BSTAR = .40752E-3 MEAN_MOTION_DOT = -.48000E-6 MEAN_MOTION_DDOT = 0 CCSDS_OMM_VERS = 2.0 CREATION_DATE = ORIGINATOR = OBJECT_NAME = GLOBALSTAR M072 OBJECT_ID = 2007-020D CENTER_NAME = EARTH REF_FRAME = TEME TIME_SYSTEM = UTC MEAN_ELEMENT_THEORY = SGP/SGP4 EPOCH = 2026-09-12T02:56:04.426080 MEAN_MOTION = 11.91660093 ECCENTRICITY = .00013131 INCLINATION = 51.9908 RA_OF_ASC_NODE = 228.8003 ARG_OF_PERICENTER = 104.645 MEAN_ANOMALY = 337.1524 EPHEMERIS_TYPE = 0 CLASSIFICATION_TYPE = U NORAD_CAT_ID = 31574 ELEMENT_SET_NO = 999 REV_AT_EPOCH = 88534 BSTAR = -.22395E-3 MEAN_MOTION_DOT = -.10000E-5 MEAN_MOTION_DDOT = 0 CCSDS_OMM_VERS = 2.0 CREATION_DATE = ORIGINATOR = OBJECT_NAME = GLOBALSTAR M066 OBJECT_ID = 2007-048C CENTER_NAME = EARTH REF_FRAME = TEME TIME_SYSTEM = UTC MEAN_ELEMENT_THEORY = SGP/SGP4 EPOCH = 2026-09-12T04:26:50.337312 MEAN_MOTION = 12.30390665 ECCENTRICITY = .00041976 INCLINATION = 51.9581 RA_OF_ASC_NODE = 168.1654 ARG_OF_PERICENTER = 222.7021 MEAN_ANOMALY = 302.755 EPHEMERIS_TYPE = 0 CLASSIFICATION_TYPE = U NORAD_CAT_ID = 32265 ELEMENT_SET_NO = 999 REV_AT_EPOCH = 87093 BSTAR = -.34179E-3 MEAN_MOTION_DOT = -.13500E-5 MEAN_MOTION_DDOT = 0 CCSDS_OMM_VERS = 2.0 CREATION_DATE = ORIGINATOR = OBJECT_NAME = GLOBALSTAR M079 OBJECT_ID = 2010-054A CENTER_NAME = EARTH REF_FRAME = TEME TIME_SYSTEM = UTC MEAN_ELEMENT_THEORY = SGP/SGP4 EPOCH = 2026-09-12T06:11:03.652224 MEAN_MOTION = 12.62267372 ECCENTRICITY = .0000357 INCLINATION = 52.0028 RA_OF_ASC_NODE = 203.6144 ARG_OF_PERICENTER = 98.1127 MEAN_ANOMALY = 49.2003 EPHEMERIS_TYPE = 0 CLASSIFICATION_TYPE = U NORAD_CAT_ID = 37188 ELEMENT_SET_NO = 999 REV_AT_EPOCH = 73354 BSTAR = -.26699E-4 MEAN_MOTION_DOT = -.10900E-5 MEAN_MOTION_DDOT = 0 CCSDS_OMM_VERS = 2.0 CREATION_DATE = ORIGINATOR = OBJECT_NAME = GLOBALSTAR M074 OBJECT_ID = 2010-054B CENTER_NAME = EARTH REF_FRAME = TEME TIME_SYSTEM = UTC MEAN_ELEMENT_THEORY = SGP/SGP4 EPOCH = 2026-09-12T06:54:37.403424 MEAN_MOTION = 12.6226303 ECCENTRICITY = .00003887 INCLINATION = 52.0001 RA_OF_ASC_NODE = 202.7753 ARG_OF_PERICENTER = 51.4818 MEAN_ANOMALY = 112.432 EPHEMERIS_TYPE = 0 CLASSIFICATION_TYPE = U NORAD_CAT_ID = 37189 ELEMENT_SET_NO = 999 REV_AT_EPOCH = 73415 BSTAR = -.45424E-4 MEAN_MOTION_DOT = -.11200E-5 MEAN_MOTION_DDOT = 0 CCSDS_OMM_VERS = 2.0 CREATION_DATE = ORIGINATOR = OBJECT_NAME = GLOBALSTAR M076 OBJECT_ID = 2010-054C CENTER_NAME = EARTH REF_FRAME = TEME TIME_SYSTEM = UTC MEAN_ELEMENT_THEORY = SGP/SGP4 EPOCH = 2026-09-12T01:24:10.840320 MEAN_MOTION = 12.62263557 ECCENTRICITY = .00001708 INCLINATION = 52.0017 RA_OF_ASC_NODE = 203.6848 ARG_OF_PERICENTER = 72.2465 MEAN_ANOMALY = 8.4157 EPHEMERIS_TYPE = 0 CLASSIFICATION_TYPE = U NORAD_CAT_ID = 37190 ELEMENT_SET_NO = 999 REV_AT_EPOCH = 73384 BSTAR = -.56538E-4 MEAN_MOTION_DOT = -.11400E-5 MEAN_MOTION_DDOT = 0 CCSDS_OMM_VERS = 2.0 CREATION_DATE = ORIGINATOR = OBJECT_NAME = GLOBALSTAR M077 OBJECT_ID = 2010-054D CENTER_NAME = EARTH REF_FRAME = TEME TIME_SYSTEM = UTC MEAN_ELEMENT_THEORY = SGP/SGP4 EPOCH = 2026-09-12T04:24:09.679104 MEAN_MOTION = 11.67548066 ECCENTRICITY = .0002496 INCLINATION = 51.9982 RA_OF_ASC_NODE = 318.489 ARG_OF_PERICENTER = 340.7271 MEAN_ANOMALY = 53.2126 EPHEMERIS_TYPE = 0 CLASSIFICATION_TYPE = U NORAD_CAT_ID = 37191 ELEMENT_SET_NO = 999 REV_AT_EPOCH = 73130 BSTAR = .24087E-3 MEAN_MOTION_DOT = -.65000E-6 MEAN_MOTION_DDOT = 0 CCSDS_OMM_VERS = 2.0 CREATION_DATE = ORIGINATOR = OBJECT_NAME = GLOBALSTAR M075 OBJECT_ID = 2010-054E CENTER_NAME = EARTH REF_FRAME = TEME TIME_SYSTEM = UTC MEAN_ELEMENT_THEORY = SGP/SGP4 EPOCH = 2026-09-12T03:36:02.801088 MEAN_MOTION = 12.62260547 ECCENTRICITY = .00004156 INCLINATION = 51.993 RA_OF_ASC_NODE = 245.4117 ARG_OF_PERICENTER = 73.3122 MEAN_ANOMALY = 4.7175 EPHEMERIS_TYPE = 0 CLASSIFICATION_TYPE = U NORAD_CAT_ID = 37192 ELEMENT_SET_NO = 999 REV_AT_EPOCH = 73292 BSTAR = -.51887E-4 MEAN_MOTION_DOT = -.11300E-5 MEAN_MOTION_DDOT = 0 CCSDS_OMM_VERS = 2.0 CREATION_DATE = ORIGINATOR = OBJECT_NAME = GLOBALSTAR M073 OBJECT_ID = 2010-054F CENTER_NAME = EARTH REF_FRAME = TEME TIME_SYSTEM = UTC MEAN_ELEMENT_THEORY = SGP/SGP4 EPOCH = 2026-09-12T06:02:07.412352 MEAN_MOTION = 12.62267872 ECCENTRICITY = .00004644 INCLINATION = 52.0052 RA_OF_ASC_NODE = 159.269 ARG_OF_PERICENTER = 85.9828 MEAN_ANOMALY = 91.9481 EPHEMERIS_TYPE = 0 CLASSIFICATION_TYPE = U NORAD_CAT_ID = 37193 ELEMENT_SET_NO = 999 REV_AT_EPOCH = 73492 BSTAR = .85904E-4 MEAN_MOTION_DOT = -.88000E-6 MEAN_MOTION_DDOT = 0 CCSDS_OMM_VERS = 2.0 CREATION_DATE = ORIGINATOR = OBJECT_NAME = GLOBALSTAR M083 OBJECT_ID = 2011-033A CENTER_NAME = EARTH REF_FRAME = TEME TIME_SYSTEM = UTC MEAN_ELEMENT_THEORY = SGP/SGP4 EPOCH = 2026-09-12T08:12:59.766624 MEAN_MOTION = 12.62259051 ECCENTRICITY = .00006357 INCLINATION = 51.9845 RA_OF_ASC_NODE = 107.103 ARG_OF_PERICENTER = 101.1959 MEAN_ANOMALY = 69.6724 EPHEMERIS_TYPE = 0 CLASSIFICATION_TYPE = U NORAD_CAT_ID = 37739 ELEMENT_SET_NO = 999 REV_AT_EPOCH = 70395 BSTAR = .16911E-3 MEAN_MOTION_DOT = -.73000E-6 MEAN_MOTION_DDOT = 0 CCSDS_OMM_VERS = 2.0 CREATION_DATE = ORIGINATOR = OBJECT_NAME = GLOBALSTAR M088 OBJECT_ID = 2011-033B CENTER_NAME = EARTH REF_FRAME = TEME TIME_SYSTEM = UTC MEAN_ELEMENT_THEORY = SGP/SGP4 EPOCH = 2026-09-12T06:45:31.210272 MEAN_MOTION = 12.6227019 ECCENTRICITY = .00006684 INCLINATION = 52.024 RA_OF_ASC_NODE = 13.9227 ARG_OF_PERICENTER = 98.0793 MEAN_ANOMALY = 277.1516 EPHEMERIS_TYPE = 0 CLASSIFICATION_TYPE = U NORAD_CAT_ID = 37740 ELEMENT_SET_NO = 999 REV_AT_EPOCH = 69949 BSTAR = -.20585E-4 MEAN_MOTION_DOT = -.10700E-5 MEAN_MOTION_DDOT = 0 CCSDS_OMM_VERS = 2.0 CREATION_DATE = ORIGINATOR = OBJECT_NAME = GLOBALSTAR M091 OBJECT_ID = 2011-033C CENTER_NAME = EARTH REF_FRAME = TEME TIME_SYSTEM = UTC MEAN_ELEMENT_THEORY = SGP/SGP4 EPOCH = 2026-09-12T05:13:47.429184 MEAN_MOTION = 12.62264683 ECCENTRICITY = .00006691 INCLINATION = 52.0019 RA_OF_ASC_NODE = 336.9576 ARG_OF_PERICENTER = 113.0878 MEAN_ANOMALY = 272.2564 EPHEMERIS_TYPE = 0 CLASSIFICATION_TYPE = U NORAD_CAT_ID = 37741 ELEMENT_SET_NO = 999 REV_AT_EPOCH = 70027 BSTAR = .61688E-4 MEAN_MOTION_DOT = -.93000E-6 MEAN_MOTION_DDOT = 0 CCSDS_OMM_VERS = 2.0 CREATION_DATE = ORIGINATOR = OBJECT_NAME = GLOBALSTAR M085 OBJECT_ID = 2011-033D CENTER_NAME = EARTH REF_FRAME = TEME TIME_SYSTEM = UTC MEAN_ELEMENT_THEORY = SGP/SGP4 EPOCH = 2026-09-12T01:03:23.677920 MEAN_MOTION = 12.62265259 ECCENTRICITY = .00005141 INCLINATION = 52.0125 RA_OF_ASC_NODE = 288.8564 ARG_OF_PERICENTER = 117.8018 MEAN_ANOMALY = 256.8833 EPHEMERIS_TYPE = 0 CLASSIFICATION_TYPE = U NORAD_CAT_ID = 37742 ELEMENT_SET_NO = 999 REV_AT_EPOCH = 70076 BSTAR = .11504E-3 MEAN_MOTION_DOT = -.83000E-6 MEAN_MOTION_DDOT = 0 CCSDS_OMM_VERS = 2.0 CREATION_DATE = ORIGINATOR = OBJECT_NAME = GLOBALSTAR M081 OBJECT_ID = 2011-033E CENTER_NAME = EARTH REF_FRAME = TEME TIME_SYSTEM = UTC MEAN_ELEMENT_THEORY = SGP/SGP4 EPOCH = 2026-09-12T03:41:29.397408 MEAN_MOTION = 12.62266214 ECCENTRICITY = .00003141 INCLINATION = 51.9956 RA_OF_ASC_NODE = 290.8586 ARG_OF_PERICENTER = 121.5132 MEAN_ANOMALY = 272.579 EPHEMERIS_TYPE = 0 CLASSIFICATION_TYPE = U NORAD_CAT_ID = 37743 ELEMENT_SET_NO = 999 REV_AT_EPOCH = 70092 BSTAR = .12518E-3 MEAN_MOTION_DOT = -.81000E-6 MEAN_MOTION_DDOT = 0 CCSDS_OMM_VERS = 2.0 CREATION_DATE = ORIGINATOR = OBJECT_NAME = GLOBALSTAR M089 OBJECT_ID = 2011-033F CENTER_NAME = EARTH REF_FRAME = TEME TIME_SYSTEM = UTC MEAN_ELEMENT_THEORY = SGP/SGP4 EPOCH = 2026-09-12T06:25:32.207232 MEAN_MOTION = 12.62263547 ECCENTRICITY = .0000335 INCLINATION = 51.9912 RA_OF_ASC_NODE = 244.6523 ARG_OF_PERICENTER = 25.3911 MEAN_ANOMALY = 347.7024 EPHEMERIS_TYPE = 0 CLASSIFICATION_TYPE = U NORAD_CAT_ID = 37744 ELEMENT_SET_NO = 999 REV_AT_EPOCH = 70178 BSTAR = -.23594E-5 MEAN_MOTION_DOT = -.10400E-5 MEAN_MOTION_DDOT = 0 CCSDS_OMM_VERS = 2.0 CREATION_DATE = ORIGINATOR = OBJECT_NAME = GLOBALSTAR M084 OBJECT_ID = 2011-080A CENTER_NAME = EARTH REF_FRAME = TEME TIME_SYSTEM = UTC MEAN_ELEMENT_THEORY = SGP/SGP4 EPOCH = 2026-09-12T07:35:28.527360 MEAN_MOTION = 12.62264137 ECCENTRICITY = .00005045 INCLINATION = 51.9995 RA_OF_ASC_NODE = 112.0301 ARG_OF_PERICENTER = 67.4623 MEAN_ANOMALY = 106.5132 EPHEMERIS_TYPE = 0 CLASSIFICATION_TYPE = U NORAD_CAT_ID = 38040 ELEMENT_SET_NO = 999 REV_AT_EPOCH = 67976 BSTAR = .14318E-3 MEAN_MOTION_DOT = -.78000E-6 MEAN_MOTION_DDOT = 0 CCSDS_OMM_VERS = 2.0 CREATION_DATE = ORIGINATOR = OBJECT_NAME = GLOBALSTAR M080 OBJECT_ID = 2011-080B CENTER_NAME = EARTH REF_FRAME = TEME TIME_SYSTEM = UTC MEAN_ELEMENT_THEORY = SGP/SGP4 EPOCH = 2026-09-11T22:28:43.637952 MEAN_MOTION = 12.62258724 ECCENTRICITY = .0001166 INCLINATION = 52.0046 RA_OF_ASC_NODE = 114.938 ARG_OF_PERICENTER = 84.6679 MEAN_ANOMALY = 291.0015 EPHEMERIS_TYPE = 0 CLASSIFICATION_TYPE = U NORAD_CAT_ID = 38041 ELEMENT_SET_NO = 999 REV_AT_EPOCH = 67984 BSTAR = .18312E-3 MEAN_MOTION_DOT = -.71000E-6 MEAN_MOTION_DDOT = 0 CCSDS_OMM_VERS = 2.0 CREATION_DATE = ORIGINATOR = OBJECT_NAME = GLOBALSTAR M082 OBJECT_ID = 2011-080C CENTER_NAME = EARTH REF_FRAME = TEME TIME_SYSTEM = UTC MEAN_ELEMENT_THEORY = SGP/SGP4 EPOCH = 2026-09-12T05:21:47.177280 MEAN_MOTION = 12.62262838 ECCENTRICITY = .00009688 INCLINATION = 52.0072 RA_OF_ASC_NODE = 69.5696 ARG_OF_PERICENTER = 101.0187 MEAN_ANOMALY = 70.7748 EPHEMERIS_TYPE = 0 CLASSIFICATION_TYPE = U NORAD_CAT_ID = 38042 ELEMENT_SET_NO = 999 REV_AT_EPOCH = 68058 BSTAR = .19651E-5 MEAN_MOTION_DOT = -.10300E-5 MEAN_MOTION_DDOT = 0 CCSDS_OMM_VERS = 2.0 CREATION_DATE = ORIGINATOR = OBJECT_NAME = GLOBALSTAR M092 OBJECT_ID = 2011-080D CENTER_NAME = EARTH REF_FRAME = TEME TIME_SYSTEM = UTC MEAN_ELEMENT_THEORY = SGP/SGP4 EPOCH = 2026-09-12T04:41:31.281216 MEAN_MOTION = 12.62265678 ECCENTRICITY = .00005959 INCLINATION = 52.0049 RA_OF_ASC_NODE = 160.058 ARG_OF_PERICENTER = 55.0907 MEAN_ANOMALY = 108.9507 EPHEMERIS_TYPE = 0 CLASSIFICATION_TYPE = U NORAD_CAT_ID = 38043 ELEMENT_SET_NO = 999 REV_AT_EPOCH = 67903 BSTAR = .68904E-4 MEAN_MOTION_DOT = -.91000E-6 MEAN_MOTION_DDOT = 0 CCSDS_OMM_VERS = 2.0 CREATION_DATE = ORIGINATOR = OBJECT_NAME = GLOBALSTAR M090 OBJECT_ID = 2011-080E CENTER_NAME = EARTH REF_FRAME = TEME TIME_SYSTEM = UTC MEAN_ELEMENT_THEORY = SGP/SGP4 EPOCH = 2026-09-12T06:00:08.977824 MEAN_MOTION = 12.62268219 ECCENTRICITY = .00009001 INCLINATION = 52.0121 RA_OF_ASC_NODE = 63.4719 ARG_OF_PERICENTER = 108.9082 MEAN_ANOMALY = 62.977 EPHEMERIS_TYPE = 0 CLASSIFICATION_TYPE = U NORAD_CAT_ID = 38044 ELEMENT_SET_NO = 999 REV_AT_EPOCH = 68070 BSTAR = -.51506E-4 MEAN_MOTION_DOT = -.11300E-5 MEAN_MOTION_DDOT = 0 CCSDS_OMM_VERS = 2.0 CREATION_DATE = ORIGINATOR = OBJECT_NAME = GLOBALSTAR M086 OBJECT_ID = 2011-080F CENTER_NAME = EARTH REF_FRAME = TEME TIME_SYSTEM = UTC MEAN_ELEMENT_THEORY = SGP/SGP4 EPOCH = 2026-09-12T04:34:27.008832 MEAN_MOTION = 12.62289058 ECCENTRICITY = .00006204 INCLINATION = 51.9895 RA_OF_ASC_NODE = 63.4386 ARG_OF_PERICENTER = 205.1348 MEAN_ANOMALY = 324.2621 EPHEMERIS_TYPE = 0 CLASSIFICATION_TYPE = U NORAD_CAT_ID = 38045 ELEMENT_SET_NO = 999 REV_AT_EPOCH = 68064 BSTAR = -.19832E-5 MEAN_MOTION_DOT = -.10400E-5 MEAN_MOTION_DDOT = 0 CCSDS_OMM_VERS = 2.0 CREATION_DATE = ORIGINATOR = OBJECT_NAME = GLOBALSTAR M097 OBJECT_ID = 2013-005A CENTER_NAME = EARTH REF_FRAME = TEME TIME_SYSTEM = UTC MEAN_ELEMENT_THEORY = SGP/SGP4 EPOCH = 2026-09-12T06:21:49.172544 MEAN_MOTION = 12.62271209 ECCENTRICITY = .00006127 INCLINATION = 52.0073 RA_OF_ASC_NODE = 338.2611 ARG_OF_PERICENTER = 119.3523 MEAN_ANOMALY = 240.7405 EPHEMERIS_TYPE = 0 CLASSIFICATION_TYPE = U NORAD_CAT_ID = 39072 ELEMENT_SET_NO = 999 REV_AT_EPOCH = 62790 BSTAR = .11838E-5 MEAN_MOTION_DOT = -.10400E-5 MEAN_MOTION_DDOT = 0 CCSDS_OMM_VERS = 2.0 CREATION_DATE = ORIGINATOR = OBJECT_NAME = GLOBALSTAR M093 OBJECT_ID = 2013-005B CENTER_NAME = EARTH REF_FRAME = TEME TIME_SYSTEM = UTC MEAN_ELEMENT_THEORY = SGP/SGP4 EPOCH = 2026-09-12T05:43:36.682464 MEAN_MOTION = 12.62267047 ECCENTRICITY = .00006766 INCLINATION = 52.0126 RA_OF_ASC_NODE = 331.7251 ARG_OF_PERICENTER = 136.2173 MEAN_ANOMALY = 223.8748 EPHEMERIS_TYPE = 0 CLASSIFICATION_TYPE = U NORAD_CAT_ID = 39073 ELEMENT_SET_NO = 999 REV_AT_EPOCH = 62785 BSTAR = .10330E-3 MEAN_MOTION_DOT = -.85000E-6 MEAN_MOTION_DDOT = 0 CCSDS_OMM_VERS = 2.0 CREATION_DATE = ORIGINATOR = OBJECT_NAME = GLOBALSTAR M094 OBJECT_ID = 2013-005C CENTER_NAME = EARTH REF_FRAME = TEME TIME_SYSTEM = UTC MEAN_ELEMENT_THEORY = SGP/SGP4 EPOCH = 2026-09-12T05:43:29.713440 MEAN_MOTION = 12.62264794 ECCENTRICITY = .00003332 INCLINATION = 51.9938 RA_OF_ASC_NODE = 245.7553 ARG_OF_PERICENTER = 113.7435 MEAN_ANOMALY = 246.3466 EPHEMERIS_TYPE = 0 CLASSIFICATION_TYPE = U NORAD_CAT_ID = 39074 ELEMENT_SET_NO = 999 REV_AT_EPOCH = 62946 BSTAR = -.82798E-4 MEAN_MOTION_DOT = -.11900E-5 MEAN_MOTION_DDOT = 0 CCSDS_OMM_VERS = 2.0 CREATION_DATE = ORIGINATOR = OBJECT_NAME = GLOBALSTAR M096 OBJECT_ID = 2013-005D CENTER_NAME = EARTH REF_FRAME = TEME TIME_SYSTEM = UTC MEAN_ELEMENT_THEORY = SGP/SGP4 EPOCH = 2026-09-12T02:14:35.988576 MEAN_MOTION = 12.62264437 ECCENTRICITY = .00005539 INCLINATION = 52.0077 RA_OF_ASC_NODE = 295.0667 ARG_OF_PERICENTER = 115.561 MEAN_ANOMALY = 244.5314 EPHEMERIS_TYPE = 0 CLASSIFICATION_TYPE = U NORAD_CAT_ID = 39075 ELEMENT_SET_NO = 999 REV_AT_EPOCH = 62836 BSTAR = .12005E-3 MEAN_MOTION_DOT = -.82000E-6 MEAN_MOTION_DDOT = 0 CCSDS_OMM_VERS = 2.0 CREATION_DATE = ORIGINATOR = OBJECT_NAME = GLOBALSTAR M078 OBJECT_ID = 2013-005E CENTER_NAME = EARTH REF_FRAME = TEME TIME_SYSTEM = UTC MEAN_ELEMENT_THEORY = SGP/SGP4 EPOCH = 2026-09-12T07:18:32.388192 MEAN_MOTION = 12.62259844 ECCENTRICITY = .00015544 INCLINATION = 51.9901 RA_OF_ASC_NODE = 18.3139 ARG_OF_PERICENTER = 99.245 MEAN_ANOMALY = 260.8592 EPHEMERIS_TYPE = 0 CLASSIFICATION_TYPE = U NORAD_CAT_ID = 39076 ELEMENT_SET_NO = 999 REV_AT_EPOCH = 62701 BSTAR = -.18757E-3 MEAN_MOTION_DOT = -.13700E-5 MEAN_MOTION_DDOT = 0 CCSDS_OMM_VERS = 2.0 CREATION_DATE = ORIGINATOR = OBJECT_NAME = GLOBALSTAR M095 OBJECT_ID = 2013-005F CENTER_NAME = EARTH REF_FRAME = TEME TIME_SYSTEM = UTC MEAN_ELEMENT_THEORY = SGP/SGP4 EPOCH = 2026-09-12T07:56:46.626144 MEAN_MOTION = 12.62264461 ECCENTRICITY = .00010667 INCLINATION = 52.0104 RA_OF_ASC_NODE = 15.9585 ARG_OF_PERICENTER = 113.9942 MEAN_ANOMALY = 246.1037 EPHEMERIS_TYPE = 0 CLASSIFICATION_TYPE = U NORAD_CAT_ID = 39077 ELEMENT_SET_NO = 999 REV_AT_EPOCH = 62687 BSTAR = -.40241E-4 MEAN_MOTION_DOT = -.11100E-5 MEAN_MOTION_DDOT = 0 CCSDS_OMM_VERS = 2.0 CREATION_DATE = ORIGINATOR = OBJECT_NAME = GLOBALSTAR M087 OBJECT_ID = 2022-064A CENTER_NAME = EARTH REF_FRAME = TEME TIME_SYSTEM = UTC MEAN_ELEMENT_THEORY = SGP/SGP4 EPOCH = 2026-09-12T02:33:35.987328 MEAN_MOTION = 12.62262876 ECCENTRICITY = .00007127 INCLINATION = 51.9988 RA_OF_ASC_NODE = 157.8325 ARG_OF_PERICENTER = 88.894 MEAN_ANOMALY = 271.2009 EPHEMERIS_TYPE = 0 CLASSIFICATION_TYPE = U NORAD_CAT_ID = 52888 ELEMENT_SET_NO = 999 REV_AT_EPOCH = 20211 BSTAR = .15482E-3 MEAN_MOTION_DOT = -.76000E-6 MEAN_MOTION_DDOT = 0 CCSDS_OMM_VERS = 2.0 CREATION_DATE = ORIGINATOR = OBJECT_NAME = GLOBALSTAR M098 OBJECT_ID = 2026-185A CENTER_NAME = EARTH REF_FRAME = TEME TIME_SYSTEM = UTC MEAN_ELEMENT_THEORY = SGP/SGP4 EPOCH = 2026-09-11T22:42:47.629440 MEAN_MOTION = 14.63730854 ECCENTRICITY = .00098017 INCLINATION = 51.9955 RA_OF_ASC_NODE = 122.3662 ARG_OF_PERICENTER = 319.9135 MEAN_ANOMALY = 40.1098 EPHEMERIS_TYPE = 0 CLASSIFICATION_TYPE = U NORAD_CAT_ID = 100325 ELEMENT_SET_NO = 999 REV_AT_EPOCH = 394 BSTAR = .77050E-4 MEAN_MOTION_DOT = .21000E-5 MEAN_MOTION_DDOT = 0 CCSDS_OMM_VERS = 2.0 CREATION_DATE = ORIGINATOR = OBJECT_NAME = GLOBALSTAR M102 OBJECT_ID = 2026-185B CENTER_NAME = EARTH REF_FRAME = TEME TIME_SYSTEM = UTC MEAN_ELEMENT_THEORY = SGP/SGP4 EPOCH = 2026-09-12T00:20:14.744256 MEAN_MOTION = 14.63765269 ECCENTRICITY = .00096131 INCLINATION = 51.9959 RA_OF_ASC_NODE = 122.0715 ARG_OF_PERICENTER = 320.6079 MEAN_ANOMALY = 39.4177 EPHEMERIS_TYPE = 0 CLASSIFICATION_TYPE = U NORAD_CAT_ID = 100326 ELEMENT_SET_NO = 999 REV_AT_EPOCH = 394 BSTAR = .78404E-4 MEAN_MOTION_DOT = .21800E-5 MEAN_MOTION_DDOT = 0 CCSDS_OMM_VERS = 2.0 CREATION_DATE = ORIGINATOR = OBJECT_NAME = GLOBALSTAR M099 OBJECT_ID = 2026-185C CENTER_NAME = EARTH REF_FRAME = TEME TIME_SYSTEM = UTC MEAN_ELEMENT_THEORY = SGP/SGP4 EPOCH = 2026-09-12T00:19:12.563904 MEAN_MOTION = 14.63798596 ECCENTRICITY = .00095109 INCLINATION = 51.9951 RA_OF_ASC_NODE = 122.0619 ARG_OF_PERICENTER = 320.3452 MEAN_ANOMALY = 39.6809 EPHEMERIS_TYPE = 0 CLASSIFICATION_TYPE = U NORAD_CAT_ID = 100327 ELEMENT_SET_NO = 999 REV_AT_EPOCH = 395 BSTAR = .74796E-4 MEAN_MOTION_DOT = .19900E-5 MEAN_MOTION_DDOT = 0 CCSDS_OMM_VERS = 2.0 CREATION_DATE = ORIGINATOR = OBJECT_NAME = GLOBALSTAR M104 OBJECT_ID = 2026-185D CENTER_NAME = EARTH REF_FRAME = TEME TIME_SYSTEM = UTC MEAN_ELEMENT_THEORY = SGP/SGP4 EPOCH = 2026-09-11T10:38:05.932608 MEAN_MOTION = 14.48491082 ECCENTRICITY = .00091535 INCLINATION = 51.9883 RA_OF_ASC_NODE = 124.9635 ARG_OF_PERICENTER = 327.5937 MEAN_ANOMALY = 32.445 EPHEMERIS_TYPE = 0 CLASSIFICATION_TYPE = U NORAD_CAT_ID = 100328 ELEMENT_SET_NO = 999 REV_AT_EPOCH = 385 BSTAR = .50472E-4 MEAN_MOTION_DOT = .19000E-6 MEAN_MOTION_DDOT = 0 CCSDS_OMM_VERS = 2.0 CREATION_DATE = ORIGINATOR = OBJECT_NAME = GLOBALSTAR M106 OBJECT_ID = 2026-185E CENTER_NAME = EARTH REF_FRAME = TEME TIME_SYSTEM = UTC MEAN_ELEMENT_THEORY = SGP/SGP4 EPOCH = 2026-09-11T22:39:01.021248 MEAN_MOTION = 14.63875281 ECCENTRICITY = .00091069 INCLINATION = 51.9958 RA_OF_ASC_NODE = 122.354 ARG_OF_PERICENTER = 320.0566 MEAN_ANOMALY = 39.9719 EPHEMERIS_TYPE = 0 CLASSIFICATION_TYPE = U NORAD_CAT_ID = 100329 ELEMENT_SET_NO = 999 REV_AT_EPOCH = 393 BSTAR = .79164E-4 MEAN_MOTION_DOT = .22300E-5 MEAN_MOTION_DDOT = 0 CCSDS_OMM_VERS = 2.0 CREATION_DATE = ORIGINATOR = OBJECT_NAME = GLOBALSTAR M101 OBJECT_ID = 2026-185F CENTER_NAME = EARTH REF_FRAME = TEME TIME_SYSTEM = UTC MEAN_ELEMENT_THEORY = SGP/SGP4 EPOCH = 2026-09-08T20:54:03.492864 MEAN_MOTION = 14.63906749 ECCENTRICITY = .00088367 INCLINATION = 51.9961 RA_OF_ASC_NODE = 135.5663 ARG_OF_PERICENTER = 308.9465 MEAN_ANOMALY = 51.0704 EPHEMERIS_TYPE = 0 CLASSIFICATION_TYPE = U NORAD_CAT_ID = 100330 ELEMENT_SET_NO = 999 REV_AT_EPOCH = 348 BSTAR = .83285E-4 MEAN_MOTION_DOT = .24500E-5 MEAN_MOTION_DDOT = 0 CCSDS_OMM_VERS = 2.0 CREATION_DATE = ORIGINATOR = OBJECT_NAME = GLOBALSTAR M105 OBJECT_ID = 2026-185G CENTER_NAME = EARTH REF_FRAME = TEME TIME_SYSTEM = UTC MEAN_ELEMENT_THEORY = SGP/SGP4 EPOCH = 2026-09-12T01:53:37.338432 MEAN_MOTION = 14.63938712 ECCENTRICITY = .00087993 INCLINATION = 51.995 RA_OF_ASC_NODE = 121.7529 ARG_OF_PERICENTER = 320.0095 MEAN_ANOMALY = 40.0213 EPHEMERIS_TYPE = 0 CLASSIFICATION_TYPE = U NORAD_CAT_ID = 100331 ELEMENT_SET_NO = 999 REV_AT_EPOCH = 395 BSTAR = .77133E-4 MEAN_MOTION_DOT = .21200E-5 MEAN_MOTION_DDOT = 0 CCSDS_OMM_VERS = 2.0 CREATION_DATE = ORIGINATOR = OBJECT_NAME = GLOBALSTAR M100 OBJECT_ID = 2026-185H CENTER_NAME = EARTH REF_FRAME = TEME TIME_SYSTEM = UTC MEAN_ELEMENT_THEORY = SGP/SGP4 EPOCH = 2026-09-12T00:13:59.033856 MEAN_MOTION = 14.63999211 ECCENTRICITY = .00085491 INCLINATION = 51.9954 RA_OF_ASC_NODE = 122.0436 ARG_OF_PERICENTER = 319.2775 MEAN_ANOMALY = 40.7542 EPHEMERIS_TYPE = 0 CLASSIFICATION_TYPE = U NORAD_CAT_ID = 100332 ELEMENT_SET_NO = 999 REV_AT_EPOCH = 394 BSTAR = .79116E-4 MEAN_MOTION_DOT = .22300E-5 MEAN_MOTION_DDOT = 0